Time,TemperatureF,DewpointF,PressureIn,WindDirection,WindDirectionDegrees,WindSpeedMPH,WindSpeedGustMPH,Humidity,HourlyPrecipIn,Conditions,Clouds,dailyrainin,SoftwareType,DateUTC
2013-03-01 00:00:00,29.1,22.8,29.93,North,358,10.7,10.7,77,0.00,,---,0.00,VWS V14.01,2013-03-01 05:00:00,
2013-03-01 00:05:00,29.1,22.8,29.93,NNW,340,9.8,12.5,77,0.00,,---,0.00,VWS V14.01,2013-03-01 05:05:00,
2013-03-01 00:06:00,29.1,22.8,29.93,WNW,294,8.1,15.2,77,0.00,,---,0.00,VWS V14.01,2013-03-01 05:06:00,
2013-03-01 00:11:00,28.9,22.6,29.93,NNW,337,15.2,15.2,77,0.00,,---,0.00,VWS V14.01,2013-03-01 05:11:00,
2013-03-01 00:16:00,28.9,22.6,29.93,NW,326,16.1,16.6,77,0.00,,---,0.00,VWS V14.01,2013-03-01 05:16:00,
2013-03-01 00:21:00,28.9,22.6,29.93,North,350,11.6,15.2,77,0.00,,---,0.00,VWS V14.01,2013-03-01 05:21:00,
2013-03-01 00:26:00,28.8,22.5,29.93,NNW,327,12.5,12.5,77,0.00,,---,0.00,VWS V14.01,2013-03-01 05:26:00,
2013-03-01 00:31:00,28.8,22.5,29.93,NNW,342,11.6,16.1,77,0.00,,---,0.00,VWS V14.01,2013-03-01 05:31:00,
2013-03-01 00:36:00,28.6,22.3,29.93,North,353,10.7,10.7,77,0.00,,---,0.00,VWS V14.01,2013-03-01 05:36:00,
2013-03-01 00:41:00,28.6,22.3,29.93,NNW,344,9.8,16.1,77,0.00,,---,0.00,VWS V14.01,2013-03-01 05:41:00,
2013-03-01 00:46:00,28.6,22.3,29.93,NW,315,16.6,16.6,77,0.00,,---,0.00,VWS V14.01,2013-03-01 05:46:00,
2013-03-01 00:51:00,28.6,22.3,29.93,North,355,11.6,11.6,77,0.00,,---,0.00,VWS V14.01,2013-03-01 05:51:00,
2013-03-01 00:56:00,28.6,22.3,29.93,North,352,16.1,16.1,77,0.00,,---,0.00,VWS V14.01,2013-03-01 05:56:00,
2013-03-01 01:01:00,28.6,22.3,29.93,NNW,336,7.2,12.5,77,0.00,,---,0.00,VWS V14.01,2013-03-01 06:01:00,
2013-03-01 01:06:00,28.6,22.3,29.93,NNW,346,8.1,11.6,77,0.00,,---,0.00,VWS V14.01,2013-03-01 06:06:00,
2013-03-01 01:11:00,28.6,22.3,29.93,NW,326,16.6,16.6,77,0.00,,---,0.00,VWS V14.01,2013-03-01 06:11:00,
2013-03-01 01:16:00,28.4,22.4,29.93,North,349,12.5,16.6,78,0.00,,---,0.00,VWS V14.01,2013-03-01 06:16:00,
2013-03-01 01:21:00,28.4,22.4,29.93,NW,325,8.1,8.1,78,0.00,,---,0.00,VWS V14.01,2013-03-01 06:21:00,
2013-03-01 01:27:00,28.4,22.4,29.93,NNW,336,9.8,9.8,78,0.00,,---,0.00,VWS V14.01,2013-03-01 06:27:00,
2013-03-01 01:32:00,28.4,22.4,29.93,WNW,298,16.6,20.1,78,0.00,,---,0.00,VWS V14.01,2013-03-01 06:32:00,
2013-03-01 01:37:00,28.4,22.4,29.93,NW,316,16.1,21.0,78,0.00,,---,0.00,VWS V14.01,2013-03-01 06:37:00,
2013-03-01 01:42:00,28.2,22.2,29.93,NNW,335,11.6,15.2,78,0.00,,---,0.00,VWS V14.01,2013-03-01 06:42:00,
2013-03-01 01:47:00,28.2,22.2,29.93,NNW,329,8.1,15.2,78,0.00,,---,0.00,VWS V14.01,2013-03-01 06:47:00,
2013-03-01 01:52:00,28.2,22.2,29.96,NW,319,16.1,16.1,78,0.00,,---,0.00,VWS V14.01,2013-03-01 06:52:00,
2013-03-01 01:57:00,28.2,22.2,29.96,North,353,6.3,10.7,78,0.00,,---,0.00,VWS V14.01,2013-03-01 06:57:00,
2013-03-01 02:02:00,28.2,22.2,29.96,NW,310,12.5,13.4,78,0.00,,---,0.00,VWS V14.01,2013-03-01 07:02:00,
2013-03-01 02:07:00,28.2,22.2,29.93,North,356,11.6,16.6,78,0.00,,---,0.00,VWS V14.01,2013-03-01 07:07:00,
2013-03-01 02:12:00,28.2,22.2,29.93,North,1,11.6,14.3,78,0.00,,---,0.00,VWS V14.01,2013-03-01 07:12:00,
2013-03-01 02:17:00,28.2,22.6,29.93,NNW,347,11.6,21.0,79,0.00,,---,0.00,VWS V14.01,2013-03-01 07:17:00,
2013-03-01 02:22:00,28.0,22.4,29.96,NW,308,8.1,8.9,79,0.00,,---,0.00,VWS V14.01,2013-03-01 07:22:00,
2013-03-01 02:27:00,28.2,22.6,29.96,NW,314,9.8,16.1,79,0.00,,---,0.00,VWS V14.01,2013-03-01 07:27:00,
2013-03-01 02:32:00,28.0,22.4,29.96,NNW,335,8.1,8.1,79,0.00,,---,0.00,VWS V14.01,2013-03-01 07:32:00,
2013-03-01 02:37:00,28.0,22.4,29.96,North,2,12.5,16.1,79,0.00,,---,0.00,VWS V14.01,2013-03-01 07:37:00,
2013-03-01 02:42:00,28.2,22.6,29.96,NNW,340,20.1,20.1,79,0.00,,---,0.00,VWS V14.01,2013-03-01 07:42:00,
2013-03-01 02:47:00,28.0,22.4,29.96,North,351,9.8,22.8,79,0.00,,---,0.00,VWS V14.01,2013-03-01 07:47:00,
2013-03-01 02:52:00,28.0,22.4,29.93,NNW,344,17.4,17.4,79,0.00,,---,0.00,VWS V14.01,2013-03-01 07:52:00,
2013-03-01 02:57:00,28.0,22.1,29.93,NNW,344,15.2,15.2,78,0.00,,---,0.00,VWS V14.01,2013-03-01 07:57:00,
2013-03-01 03:02:00,28.0,22.1,29.93,North,349,8.9,13.4,78,0.00,,---,0.00,VWS V14.01,2013-03-01 08:02:00,
2013-03-01 03:07:00,28.0,22.1,29.96,NNW,338,7.2,10.7,78,0.00,,---,0.00,VWS V14.01,2013-03-01 08:07:00,
2013-03-01 03:12:00,28.0,22.1,29.96,NNW,331,17.4,17.4,78,0.00,,---,0.00,VWS V14.01,2013-03-01 08:12:00,
2013-03-01 03:17:00,28.0,22.1,29.96,North,3,12.5,14.3,78,0.00,,---,0.00,VWS V14.01,2013-03-01 08:17:00,
2013-03-01 03:22:00,28.0,22.1,29.96,NNW,345,12.5,13.4,78,0.00,,---,0.00,VWS V14.01,2013-03-01 08:22:00,
2013-03-01 03:27:00,28.0,22.1,29.96,NNE,14,12.5,25.5,78,0.00,,---,0.00,VWS V14.01,2013-03-01 08:27:00,
2013-03-01 03:32:00,27.9,21.6,29.96,NNW,340,9.8,9.8,77,0.00,,---,0.00,VWS V14.01,2013-03-01 08:32:00,
2013-03-01 03:38:00,27.9,21.6,29.93,North,352,11.6,15.2,77,0.00,,---,0.00,VWS V14.01,2013-03-01 08:38:00,
2013-03-01 03:43:00,27.9,21.6,29.93,NNE,14,8.1,8.1,77,0.00,,---,0.00,VWS V14.01,2013-03-01 08:43:00,
2013-03-01 03:48:00,27.9,21.6,29.93,NNW,342,12.5,12.5,77,0.00,,---,0.00,VWS V14.01,2013-03-01 08:48:00,
2013-03-01 03:53:00,27.9,21.6,29.96,NW,312,17.4,25.5,77,0.00,,---,0.00,VWS V14.01,2013-03-01 08:53:00,
2013-03-01 03:58:00,27.9,21.6,29.96,NNW,348,7.2,16.1,77,0.00,,---,0.00,VWS V14.01,2013-03-01 08:58:00,
2013-03-01 04:03:00,27.9,21.6,29.96,NNW,333,6.3,7.2,77,0.00,,---,0.00,VWS V14.01,2013-03-01 09:03:00,
2013-03-01 04:08:00,27.9,21.6,29.96,NE,53,4.5,5.4,77,0.00,,---,0.00,VWS V14.01,2013-03-01 09:08:00,
2013-03-01 04:13:00,27.9,21.6,29.96,NNE,18,7.2,7.2,77,0.00,,---,0.00,VWS V14.01,2013-03-01 09:13:00,
2013-03-01 04:18:00,27.9,21.6,29.96,NNE,14,7.2,10.7,77,0.00,,---,0.00,VWS V14.01,2013-03-01 09:18:00,
2013-03-01 04:23:00,27.9,21.6,29.96,North,3,7.2,7.2,77,0.00,,---,0.00,VWS V14.01,2013-03-01 09:23:00,
2013-03-01 04:28:00,27.9,21.6,29.96,NNW,327,6.3,7.2,77,0.00,,---,0.00,VWS V14.01,2013-03-01 09:28:00,
2013-03-01 04:33:00,27.9,21.6,29.96,North,6,8.1,14.3,77,0.00,,---,0.00,VWS V14.01,2013-03-01 09:33:00,
2013-03-01 04:38:00,27.7,21.4,29.96,NE,46,11.6,11.6,77,0.00,,---,0.00,VWS V14.01,2013-03-01 09:38:00,
2013-03-01 04:43:00,27.7,21.4,29.96,North,5,8.1,8.1,77,0.00,,---,0.00,VWS V14.01,2013-03-01 09:43:00,
2013-03-01 04:48:00,27.7,21.4,29.96,North,353,11.6,11.6,77,0.00,,---,0.00,VWS V14.01,2013-03-01 09:48:00,
2013-03-01 04:53:00,27.7,21.4,29.96,NNW,348,12.5,12.5,77,0.00,,---,0.00,VWS V14.01,2013-03-01 09:53:00,
2013-03-01 04:58:00,27.7,21.4,29.96,NNW,343,10.7,10.7,77,0.00,,---,0.00,VWS V14.01,2013-03-01 09:58:00,
2013-03-01 05:03:00,27.5,21.2,29.96,NW,316,9.8,10.7,77,0.00,,---,0.00,VWS V14.01,2013-03-01 10:03:00,
2013-03-01 05:08:00,27.5,21.2,29.96,NNW,347,8.1,8.1,77,0.00,,---,0.00,VWS V14.01,2013-03-01 10:08:00,
2013-03-01 05:13:00,27.5,21.2,29.96,NNE,21,11.6,11.6,77,0.00,,---,0.00,VWS V14.01,2013-03-01 10:13:00,
2013-03-01 05:19:00,27.5,21.2,29.96,North,353,20.1,20.1,77,0.00,,---,0.00,VWS V14.01,2013-03-01 10:19:00,
2013-03-01 05:24:00,27.3,20.8,29.96,North,354,11.6,11.6,76,0.00,,---,0.00,VWS V14.01,2013-03-01 10:24:00,
2013-03-01 05:29:00,27.3,20.8,29.96,NNE,21,12.5,12.5,76,0.00,,---,0.00,VWS V14.01,2013-03-01 10:29:00,
2013-03-01 05:34:00,27.3,20.8,29.96,North,3,10.7,10.7,76,0.00,,---,0.00,VWS V14.01,2013-03-01 10:34:00,
2013-03-01 05:39:00,27.3,20.8,29.96,NNW,348,15.2,20.1,76,0.00,,---,0.00,VWS V14.01,2013-03-01 10:39:00,
2013-03-01 05:44:00,27.1,20.6,29.96,NNW,327,11.6,11.6,76,0.00,,---,0.00,VWS V14.01,2013-03-01 10:44:00,
2013-03-01 05:49:00,27.1,20.6,29.96,NE,34,11.6,12.5,76,0.00,,---,0.00,VWS V14.01,2013-03-01 10:49:00,
2013-03-01 05:54:00,27.0,20.1,29.96,NNE,21,10.7,10.7,75,0.00,,---,0.00,VWS V14.01,2013-03-01 10:54:00,
2013-03-01 05:59:00,27.0,20.1,29.96,North,349,6.3,12.5,75,0.00,,---,0.00,VWS V14.01,2013-03-01 10:59:00,
2013-03-01 06:04:00,27.0,19.8,29.96,NNE,18,4.5,6.3,74,0.00,,---,0.00,VWS V14.01,2013-03-01 11:04:00,
2013-03-01 06:09:00,26.8,19.6,29.96,NNW,348,8.1,12.5,74,0.00,,---,0.00,VWS V14.01,2013-03-01 11:09:00,
2013-03-01 06:14:00,26.8,19.6,29.96,North,10,15.2,15.2,74,0.00,,---,0.00,VWS V14.01,2013-03-01 11:14:00,
2013-03-01 06:19:00,26.8,19.6,29.96,NW,321,16.1,20.1,74,0.00,,---,0.00,VWS V14.01,2013-03-01 11:19:00,
2013-03-01 06:24:00,26.6,19.4,29.96,North,2,21.9,21.9,74,0.00,,---,0.00,VWS V14.01,2013-03-01 11:24:00,
2013-03-01 06:29:00,26.4,19.0,29.96,North,5,7.2,12.5,73,0.00,,---,0.00,VWS V14.01,2013-03-01 11:29:00,
2013-03-01 06:35:00,26.4,19.0,29.96,North,349,12.5,15.2,73,0.00,,---,0.00,VWS V14.01,2013-03-01 11:35:00,
2013-03-01 06:40:00,26.2,18.8,29.96,NNW,344,15.2,26.4,73,0.00,,---,0.00,VWS V14.01,2013-03-01 11:40:00,
2013-03-01 06:45:00,26.2,18.8,29.96,NNE,14,8.1,11.6,73,0.00,,---,0.00,VWS V14.01,2013-03-01 11:45:00,
2013-03-01 06:50:00,26.1,18.6,29.96,North,4,7.2,7.2,73,0.00,,---,0.00,VWS V14.01,2013-03-01 11:50:00,
2013-03-01 06:55:00,26.1,18.3,29.99,North,350,11.6,16.1,72,0.00,,---,0.00,VWS V14.01,2013-03-01 11:55:00,
2013-03-01 07:00:00,25.9,18.1,29.99,NNE,14,21.9,21.9,72,0.00,,---,0.00,VWS V14.01,2013-03-01 12:00:00,
2013-03-01 07:05:00,25.9,17.8,29.99,NNW,333,12.5,15.2,71,0.00,,---,0.00,VWS V14.01,2013-03-01 12:05:00,
2013-03-01 07:10:00,25.7,17.6,29.99,North,349,13.4,20.1,71,0.00,,---,0.00,VWS V14.01,2013-03-01 12:10:00,
2013-03-01 07:15:00,25.7,17.6,29.99,NNW,338,6.3,11.6,71,0.00,,---,0.00,VWS V14.01,2013-03-01 12:15:00,
2013-03-01 07:20:00,25.7,17.9,29.99,NNE,21,6.3,6.3,72,0.00,,---,0.00,VWS V14.01,2013-03-01 12:20:00,
2013-03-01 07:25:00,25.7,17.9,29.99,NW,306,11.6,12.5,72,0.00,,---,0.00,VWS V14.01,2013-03-01 12:25:00,
2013-03-01 07:31:00,25.7,17.9,29.99,North,5,6.3,9.8,72,0.00,,---,0.00,VWS V14.01,2013-03-01 12:31:00,
2013-03-01 07:36:00,25.7,18.3,29.99,NNW,337,10.7,10.7,73,0.00,,---,0.00,VWS V14.01,2013-03-01 12:36:00,
2013-03-01 07:41:00,25.5,18.1,29.99,North,359,16.1,20.1,73,0.00,,---,0.00,VWS V14.01,2013-03-01 12:41:00,
2013-03-01 07:46:00,25.5,18.1,29.99,North,355,17.4,25.5,73,0.00,,---,0.00,VWS V14.01,2013-03-01 12:46:00,
2013-03-01 07:51:00,25.3,17.9,29.99,North,355,10.7,16.1,73,0.00,,---,0.00,VWS V14.01,2013-03-01 12:51:00,
2013-03-01 07:56:00,25.3,17.9,29.99,North,349,19.2,21.9,73,0.00,,---,0.00,VWS V14.01,2013-03-01 12:56:00,
2013-03-01 08:01:00,25.3,17.9,29.99,NNW,328,16.6,21.0,73,0.00,,---,0.00,VWS V14.01,2013-03-01 13:01:00,
2013-03-01 08:06:00,25.3,17.9,29.99,NNW,336,24.6,24.6,73,0.00,,---,0.00,VWS V14.01,2013-03-01 13:06:00,
2013-03-01 08:11:00,25.3,18.2,29.99,NNW,328,16.1,16.1,74,0.00,,---,0.00,VWS V14.01,2013-03-01 13:11:00,
2013-03-01 08:16:00,25.2,18.0,29.99,North,352,16.6,16.6,74,0.00,,---,0.00,VWS V14.01,2013-03-01 13:16:00,
2013-03-01 08:21:00,25.2,18.0,30.02,NE,43,11.6,11.6,74,0.00,,---,0.00,VWS V14.01,2013-03-01 13:21:00,
2013-03-01 08:26:00,25.2,18.0,30.02,NNW,327,12.5,12.5,74,0.00,,---,0.00,VWS V14.01,2013-03-01 13:26:00,
2013-03-01 08:31:00,25.2,18.0,30.02,NNW,329,12.5,16.6,74,0.00,,---,0.00,VWS V14.01,2013-03-01 13:31:00,
2013-03-01 08:36:00,25.2,18.0,30.02,NNW,345,11.6,11.6,74,0.00,,---,0.00,VWS V14.01,2013-03-01 13:36:00,
2013-03-01 08:41:00,25.2,18.0,30.02,NNW,331,21.0,30.9,74,0.00,,---,0.00,VWS V14.01,2013-03-01 13:41:00,
2013-03-01 08:46:00,25.0,17.9,30.02,NNW,342,12.5,16.6,74,0.00,,---,0.00,VWS V14.01,2013-03-01 13:46:00,
2013-03-01 08:51:00,25.0,17.9,30.02,NNW,336,19.2,19.2,74,0.00,,---,0.00,VWS V14.01,2013-03-01 13:51:00,
2013-03-01 08:56:00,25.0,17.9,30.02,North,356,10.7,10.7,74,0.00,,---,0.00,VWS V14.01,2013-03-01 13:56:00,
2013-03-01 09:02:00,25.2,18.0,30.02,North,2,10.7,16.1,74,0.00,,---,0.00,VWS V14.01,2013-03-01 14:02:00,
2013-03-01 09:07:00,25.2,18.0,30.02,NNW,333,11.6,16.1,74,0.00,,---,0.00,VWS V14.01,2013-03-01 14:07:00,
2013-03-01 09:12:00,25.2,18.0,30.02,North,350,10.7,13.4,74,0.00,,---,0.00,VWS V14.01,2013-03-01 14:12:00,
2013-03-01 09:17:00,25.2,18.0,30.02,NNE,14,12.5,12.5,74,0.00,,---,0.00,VWS V14.01,2013-03-01 14:17:00,
2013-03-01 09:22:00,25.2,18.0,30.02,NNW,337,10.7,12.5,74,0.00,,---,0.00,VWS V14.01,2013-03-01 14:22:00,
2013-03-01 09:27:00,25.2,18.0,30.02,NNW,342,16.1,20.1,74,0.00,,---,0.00,VWS V14.01,2013-03-01 14:27:00,
2013-03-01 09:32:00,25.2,18.0,30.02,North,2,14.3,16.1,74,0.00,,---,0.00,VWS V14.01,2013-03-01 14:32:00,
2013-03-01 09:37:00,25.0,17.9,30.02,NNW,341,15.2,21.0,74,0.00,,---,0.00,VWS V14.01,2013-03-01 14:37:00,
2013-03-01 09:42:00,25.0,17.9,30.02,NNW,341,16.6,16.6,74,0.00,,---,0.00,VWS V14.01,2013-03-01 14:42:00,
2013-03-01 09:47:00,25.0,17.9,30.02,NNW,346,17.4,21.9,74,0.00,,---,0.00,VWS V14.01,2013-03-01 14:47:00,
2013-03-01 09:52:00,25.0,17.9,30.02,NNW,346,16.6,16.6,74,0.00,,---,0.00,VWS V14.01,2013-03-01 14:52:00,
2013-03-01 09:57:00,25.0,17.9,30.02,NE,35,11.6,21.0,74,0.00,,---,0.00,VWS V14.01,2013-03-01 14:57:00,
2013-03-01 10:02:00,24.8,17.7,30.02,North,354,17.4,34.9,74,0.00,,---,0.00,VWS V14.01,2013-03-01 15:02:00,
2013-03-01 10:07:00,24.8,17.7,30.02,NNW,340,8.1,12.5,74,0.00,,---,0.00,VWS V14.01,2013-03-01 15:07:00,
2013-03-01 10:12:00,25.0,17.6,30.02,North,355,21.9,21.9,73,0.00,,---,0.00,VWS V14.01,2013-03-01 15:12:00,
2013-03-01 10:17:00,25.0,17.6,30.02,NNE,21,12.5,12.5,73,0.00,,---,0.00,VWS V14.01,2013-03-01 15:17:00,
2013-03-01 10:22:00,25.2,17.7,30.02,NNE,30,9.8,10.7,73,0.00,,---,0.00,VWS V14.01,2013-03-01 15:22:00,
2013-03-01 10:27:00,25.3,17.9,30.02,NW,317,16.6,20.1,73,0.00,,---,0.00,VWS V14.01,2013-03-01 15:27:00,
2013-03-01 10:32:00,25.3,17.9,30.02,NNW,337,19.2,19.2,73,0.00,,---,0.00,VWS V14.01,2013-03-01 15:32:00,
2013-03-01 10:37:00,25.2,17.4,30.02,North,4,20.1,20.1,72,0.00,,---,0.00,VWS V14.01,2013-03-01 15:37:00,
2013-03-01 10:42:00,25.2,17.4,30.02,North,1,15.2,16.1,72,0.00,,---,0.00,VWS V14.01,2013-03-01 15:42:00,
2013-03-01 10:47:00,25.3,17.6,30.02,North,351,11.6,11.6,72,0.00,,---,0.00,VWS V14.01,2013-03-01 15:47:00,
2013-03-01 10:52:00,25.3,17.6,30.02,NNW,347,9.8,21.9,72,0.00,,---,0.00,VWS V14.01,2013-03-01 15:52:00,
2013-03-01 10:57:00,25.5,17.8,30.02,NW,324,12.5,14.3,72,0.00,,---,0.00,VWS V14.01,2013-03-01 15:57:00,
2013-03-01 11:02:00,25.5,17.8,30.02,NNE,14,15.2,15.2,72,0.00,,---,0.00,VWS V14.01,2013-03-01 16:02:00,
2013-03-01 11:07:00,25.3,17.3,30.05,North,359,16.1,16.1,71,0.00,,---,0.00,VWS V14.01,2013-03-01 16:07:00,
2013-03-01 11:12:00,25.3,17.3,30.05,North,358,15.2,25.5,71,0.00,,---,0.00,VWS V14.01,2013-03-01 16:12:00,
2013-03-01 11:17:00,25.2,17.1,30.05,NNW,343,12.5,23.7,71,0.00,,---,0.00,VWS V14.01,2013-03-01 16:17:00,
2013-03-01 11:22:00,25.2,17.1,30.05,North,349,16.1,16.1,71,0.00,,---,0.00,VWS V14.01,2013-03-01 16:22:00,
2013-03-01 11:27:00,25.2,17.4,30.05,NNW,329,20.1,20.1,72,0.00,,---,0.00,VWS V14.01,2013-03-01 16:27:00,
2013-03-01 11:32:00,25.2,17.4,30.05,NNW,341,10.7,10.7,72,0.00,,---,0.00,VWS V14.01,2013-03-01 16:32:00,
2013-03-01 11:37:00,25.2,17.4,30.05,NNW,336,16.1,16.1,72,0.00,,---,0.00,VWS V14.01,2013-03-01 16:37:00,
2013-03-01 11:42:00,25.2,17.4,30.05,NNW,346,16.6,16.6,72,0.00,,---,0.00,VWS V14.01,2013-03-01 16:42:00,
2013-03-01 11:48:00,25.3,17.9,30.05,NNW,335,17.4,25.5,73,0.00,,---,0.00,VWS V14.01,2013-03-01 16:48:00,
2013-03-01 11:53:00,25.3,17.9,30.05,North,352,12.5,12.5,73,0.00,,---,0.00,VWS V14.01,2013-03-01 16:53:00,
2013-03-01 11:58:00,25.5,18.1,30.05,NNE,18,10.7,10.7,73,0.00,,---,0.00,VWS V14.01,2013-03-01 16:58:00,
2013-03-01 12:03:00,25.7,18.3,30.05,North,352,13.4,13.4,73,0.00,,---,0.00,VWS V14.01,2013-03-01 17:03:00,
2013-03-01 12:08:00,25.9,18.4,30.05,NNW,327,8.1,21.9,73,0.00,,---,0.00,VWS V14.01,2013-03-01 17:08:00,
2013-03-01 12:13:00,25.9,18.1,30.05,NNE,14,9.8,11.6,72,0.00,,---,0.00,VWS V14.01,2013-03-01 17:13:00,
2013-03-01 12:18:00,25.9,17.8,30.05,North,350,15.2,21.0,71,0.00,,---,0.00,VWS V14.01,2013-03-01 17:18:00,
2013-03-01 12:23:00,25.7,17.6,30.05,NNW,334,15.2,20.1,71,0.00,,---,0.00,VWS V14.01,2013-03-01 17:23:00,
2013-03-01 12:28:00,25.3,17.3,30.05,NW,324,26.4,26.4,71,0.00,,---,0.00,VWS V14.01,2013-03-01 17:28:00,
2013-03-01 12:33:00,25.3,17.3,30.05,North,355,15.2,21.9,71,0.00,,---,0.00,VWS V14.01,2013-03-01 17:33:00,
2013-03-01 12:38:00,25.2,17.1,30.05,North,355,15.2,16.6,71,0.00,,---,0.00,VWS V14.01,2013-03-01 17:38:00,
2013-03-01 12:43:00,25.3,17.3,30.05,NNW,338,8.1,10.7,71,0.00,,---,0.00,VWS V14.01,2013-03-01 17:43:00,
2013-03-01 12:48:00,25.3,17.3,30.05,NW,319,15.2,16.1,71,0.00,,---,0.00,VWS V14.01,2013-03-01 17:48:00,
2013-03-01 12:53:00,25.5,17.1,30.05,NNE,14,12.5,20.1,70,0.00,,---,0.00,VWS V14.01,2013-03-01 17:53:00,
2013-03-01 12:58:00,25.5,17.1,30.05,North,356,16.6,17.4,70,0.00,,---,0.00,VWS V14.01,2013-03-01 17:58:00,
2013-03-01 13:03:00,25.5,17.1,30.05,NNW,342,17.4,20.1,70,0.00,,---,0.00,VWS V14.01,2013-03-01 18:03:00,
2013-03-01 13:08:00,25.5,17.1,30.05,NNW,346,15.2,16.1,70,0.00,,---,0.00,VWS V14.01,2013-03-01 18:08:00,
2013-03-01 13:13:00,25.7,17.3,30.05,North,10,17.4,17.4,70,0.00,,---,0.00,VWS V14.01,2013-03-01 18:13:00,
2013-03-01 13:19:00,25.7,17.3,30.05,NNW,347,21.0,21.9,70,0.00,,---,0.00,VWS V14.01,2013-03-01 18:19:00,
2013-03-01 13:24:00,25.7,17.0,30.02,North,360,11.6,25.5,69,0.00,,---,0.00,VWS V14.01,2013-03-01 18:24:00,
2013-03-01 13:29:00,25.9,17.1,30.02,North,360,10.7,11.6,69,0.00,,---,0.00,VWS V14.01,2013-03-01 18:29:00,
2013-03-01 13:34:00,26.1,17.3,30.02,NNW,329,10.7,10.7,69,0.00,,---,0.00,VWS V14.01,2013-03-01 18:34:00,
2013-03-01 13:39:00,26.1,17.3,30.02,North,6,8.1,12.5,69,0.00,,---,0.00,VWS V14.01,2013-03-01 18:39:00,
2013-03-01 13:44:00,26.1,17.6,30.02,NW,314,12.5,21.9,70,0.00,,---,0.00,VWS V14.01,2013-03-01 18:44:00,
2013-03-01 13:49:00,26.1,17.3,30.02,NW,319,20.1,22.8,69,0.00,,---,0.00,VWS V14.01,2013-03-01 18:49:00,
2013-03-01 13:54:00,25.9,17.1,30.02,NNW,337,20.1,20.1,69,0.00,,---,0.00,VWS V14.01,2013-03-01 18:54:00,
2013-03-01 13:59:00,25.7,17.0,30.02,NNE,14,10.7,10.7,69,0.00,,---,0.00,VWS V14.01,2013-03-01 18:59:00,
2013-03-01 14:04:00,25.9,17.5,30.02,NNW,345,16.6,16.6,70,0.00,,---,0.00,VWS V14.01,2013-03-01 19:04:00,
2013-03-01 14:09:00,25.9,17.5,30.02,North,349,11.6,12.5,70,0.00,,---,0.00,VWS V14.01,2013-03-01 19:09:00,
2013-03-01 14:14:00,25.9,17.5,30.02,NNW,346,17.4,17.4,70,0.00,,---,0.00,VWS V14.01,2013-03-01 19:14:00,
2013-03-01 14:20:00,25.7,17.3,30.02,NNW,327,16.1,16.1,70,0.00,,---,0.00,VWS V14.01,2013-03-01 19:20:00,
2013-03-01 14:25:00,25.7,17.3,30.02,NNW,334,16.1,21.0,70,0.00,,---,0.00,VWS V14.01,2013-03-01 19:25:00,
2013-03-01 14:30:00,25.5,17.1,30.02,NNW,332,24.6,24.6,70,0.00,,---,0.00,VWS V14.01,2013-03-01 19:30:00,
2013-03-01 14:35:00,25.5,17.4,30.02,NNW,335,12.5,16.6,71,0.00,,---,0.00,VWS V14.01,2013-03-01 19:35:00,
2013-03-01 14:40:00,25.5,17.4,30.02,North,351,10.7,20.1,71,0.00,,---,0.00,VWS V14.01,2013-03-01 19:40:00,
2013-03-01 14:45:00,25.5,17.4,30.02,North,9,30.9,30.9,71,0.00,,---,0.00,VWS V14.01,2013-03-01 19:45:00,
2013-03-01 14:50:00,25.5,17.4,30.02,North,351,7.2,11.6,71,0.00,,---,0.00,VWS V14.01,2013-03-01 19:50:00,
2013-03-01 14:55:00,25.7,17.9,30.02,North,1,10.7,18.3,72,0.00,,---,0.00,VWS V14.01,2013-03-01 19:55:00,
2013-03-01 15:00:00,25.5,17.8,30.02,NNE,14,16.6,21.0,72,0.00,,---,0.00,VWS V14.01,2013-03-01 20:00:00,
2013-03-01 15:05:00,25.3,17.3,30.02,NNW,334,7.2,12.5,71,0.00,,---,0.00,VWS V14.01,2013-03-01 20:05:00,
2013-03-01 15:10:00,25.3,17.6,30.02,NNW,334,16.1,16.6,72,0.00,,---,0.00,VWS V14.01,2013-03-01 20:10:00,
2013-03-01 15:15:00,25.3,17.6,30.02,NNW,346,11.6,21.0,72,0.00,,---,0.00,VWS V14.01,2013-03-01 20:15:00,
2013-03-01 15:20:00,25.3,17.6,30.02,NNW,347,17.4,17.4,72,0.00,,---,0.00,VWS V14.01,2013-03-01 20:20:00,
2013-03-01 15:25:00,25.3,17.6,30.02,NW,311,12.5,19.2,72,0.00,,---,0.00,VWS V14.01,2013-03-01 20:25:00,
2013-03-01 15:30:00,25.3,17.6,30.02,NNW,329,20.1,20.1,72,0.00,,---,0.00,VWS V14.01,2013-03-01 20:30:00,
2013-03-01 15:35:00,25.2,17.4,30.02,NNW,340,24.6,24.6,72,0.00,,---,0.00,VWS V14.01,2013-03-01 20:35:00,
2013-03-01 15:41:00,25.0,17.2,30.02,NNW,344,15.2,16.1,72,0.00,,---,0.00,VWS V14.01,2013-03-01 20:41:00,
2013-03-01 15:46:00,25.0,17.6,30.02,North,354,16.6,16.6,73,0.00,,---,0.00,VWS V14.01,2013-03-01 20:46:00,
2013-03-01 15:51:00,25.0,17.6,30.02,WNW,294,21.9,21.9,73,0.00,,---,0.00,VWS V14.01,2013-03-01 20:51:00,
2013-03-01 15:56:00,25.0,17.6,30.02,NW,321,13.4,16.1,73,0.00,,---,0.00,VWS V14.01,2013-03-01 20:56:00,
2013-03-01 16:01:00,24.8,17.7,30.02,North,360,18.3,18.3,74,0.00,,---,0.00,VWS V14.01,2013-03-01 21:01:00,
2013-03-01 16:06:00,24.8,17.4,30.02,NNE,21,11.6,11.6,73,0.00,,---,0.00,VWS V14.01,2013-03-01 21:06:00,
2013-03-01 16:11:00,24.8,17.7,30.02,North,354,9.8,11.6,74,0.00,,---,0.00,VWS V14.01,2013-03-01 21:11:00,
2013-03-01 16:16:00,25.0,17.6,30.02,NNW,340,24.6,25.5,73,0.00,,---,0.00,VWS V14.01,2013-03-01 21:16:00,
2013-03-01 16:21:00,24.8,17.4,30.02,NNE,18,16.1,16.6,73,0.00,,---,0.00,VWS V14.01,2013-03-01 21:21:00,
2013-03-01 16:26:00,24.8,17.4,30.02,North,349,11.6,16.1,73,0.00,,---,0.00,VWS V14.01,2013-03-01 21:26:00,
2013-03-01 16:31:00,24.8,17.4,30.02,NNE,21,12.5,16.6,73,0.00,,---,0.00,VWS V14.01,2013-03-01 21:31:00,
2013-03-01 16:36:00,24.8,17.4,30.02,North,1,16.6,16.6,73,0.00,,---,0.00,VWS V14.01,2013-03-01 21:36:00,
2013-03-01 16:41:00,24.8,17.4,30.05,North,349,12.5,12.5,73,0.00,,---,0.00,VWS V14.01,2013-03-01 21:41:00,
2013-03-01 16:46:00,24.8,17.4,30.05,North,2,10.7,21.0,73,0.00,,---,0.00,VWS V14.01,2013-03-01 21:46:00,
2013-03-01 16:51:00,24.8,17.4,30.05,NNW,340,15.2,15.2,73,0.00,,---,0.00,VWS V14.01,2013-03-01 21:51:00,
2013-03-01 16:56:00,24.6,17.2,30.05,NNW,341,12.5,21.0,73,0.00,,---,0.00,VWS V14.01,2013-03-01 21:56:00,
2013-03-01 17:02:00,24.6,17.2,30.05,NNW,337,15.2,15.2,73,0.00,,---,0.00,VWS V14.01,2013-03-01 22:02:00,
2013-03-01 17:07:00,24.6,17.2,30.05,NNW,333,12.5,12.5,73,0.00,,---,0.00,VWS V14.01,2013-03-01 22:07:00,
2013-03-01 17:12:00,24.6,17.2,30.05,North,352,12.5,12.5,73,0.00,,---,0.00,VWS V14.01,2013-03-01 22:12:00,
2013-03-01 17:17:00,24.6,17.2,30.05,NW,323,16.1,17.4,73,0.00,,---,0.00,VWS V14.01,2013-03-01 22:17:00,
2013-03-01 17:22:00,24.6,17.5,30.05,NNW,340,16.1,16.1,74,0.00,,---,0.00,VWS V14.01,2013-03-01 22:22:00,
2013-03-01 17:27:00,24.6,17.5,30.05,NNW,337,11.6,17.4,74,0.00,,---,0.00,VWS V14.01,2013-03-01 22:27:00,
2013-03-01 17:32:00,24.4,17.4,30.05,NNW,345,30.9,30.9,74,0.00,,---,0.00,VWS V14.01,2013-03-01 22:32:00,
2013-03-01 17:37:00,24.4,17.4,30.05,North,1,16.1,19.2,74,0.00,,---,0.00,VWS V14.01,2013-03-01 22:37:00,
2013-03-01 17:42:00,24.4,17.4,30.05,NNW,347,16.6,17.4,74,0.00,,---,0.00,VWS V14.01,2013-03-01 22:42:00,
2013-03-01 17:47:00,24.4,17.4,30.05,North,360,12.5,17.4,74,0.00,,---,0.00,VWS V14.01,2013-03-01 22:47:00,
2013-03-01 17:52:00,24.4,17.4,30.05,North,1,16.6,16.6,74,0.00,,---,0.00,VWS V14.01,2013-03-01 22:52:00,
2013-03-01 17:57:00,24.4,17.4,30.05,NNW,334,11.6,16.6,74,0.00,,---,0.00,VWS V14.01,2013-03-01 22:57:00,
2013-03-01 18:02:00,24.4,17.4,30.05,NNW,339,10.7,15.2,74,0.00,,---,0.00,VWS V14.01,2013-03-01 23:02:00,
2013-03-01 18:07:00,24.4,17.4,30.05,NW,320,6.3,16.6,74,0.00,,---,0.00,VWS V14.01,2013-03-01 23:07:00,
2013-03-01 18:12:00,24.4,17.4,30.05,North,2,11.6,19.2,74,0.00,,---,0.00,VWS V14.01,2013-03-01 23:12:00,
2013-03-01 18:17:00,24.4,17.4,30.05,NNW,336,13.4,17.4,74,0.00,,---,0.00,VWS V14.01,2013-03-01 23:17:00,
2013-03-01 18:22:00,24.4,17.4,30.05,NNW,348,23.7,23.7,74,0.00,,---,0.00,VWS V14.01,2013-03-01 23:22:00,
2013-03-01 18:27:00,24.4,17.7,30.05,NNW,348,12.5,20.1,75,0.00,,---,0.00,VWS V14.01,2013-03-01 23:27:00,
2013-03-01 18:32:00,24.4,17.7,30.05,North,1,12.5,17.4,75,0.00,,---,0.00,VWS V14.01,2013-03-01 23:32:00,
2013-03-01 18:37:00,24.4,17.7,30.05,NNW,348,16.1,17.4,75,0.00,,---,0.00,VWS V14.01,2013-03-01 23:37:00,
2013-03-01 18:42:00,24.4,17.7,30.05,North,354,12.5,12.5,75,0.00,,---,0.00,VWS V14.01,2013-03-01 23:42:00,
2013-03-01 18:47:00,24.4,17.7,30.05,NW,312,8.1,12.5,75,0.00,,---,0.00,VWS V14.01,2013-03-01 23:47:00,
2013-03-01 18:52:00,24.4,17.7,30.05,NW,325,14.3,17.4,75,0.00,,---,0.00,VWS V14.01,2013-03-01 23:52:00,
2013-03-01 18:57:00,24.4,17.7,30.05,NNW,342,16.6,16.6,75,0.00,,---,0.00,VWS V14.01,2013-03-01 23:57:00,
2013-03-01 19:02:00,24.4,17.7,30.05,NNW,327,16.1,16.1,75,0.00,,---,0.00,VWS V14.01,2013-03-02 00:02:00,
2013-03-01 19:07:00,24.4,17.7,30.05,North,351,21.0,21.0,75,0.00,,---,0.00,VWS V14.01,2013-03-02 00:07:00,
2013-03-01 19:13:00,24.4,17.7,30.05,NNW,347,11.6,11.6,75,0.00,,---,0.00,VWS V14.01,2013-03-02 00:13:00,
2013-03-01 19:18:00,24.4,17.7,30.05,NNE,29,11.6,16.1,75,0.00,,---,0.00,VWS V14.01,2013-03-02 00:18:00,
2013-03-01 19:23:00,24.4,17.7,30.05,NNW,344,8.1,12.5,75,0.00,,---,0.00,VWS V14.01,2013-03-02 00:23:00,
2013-03-01 19:28:00,24.4,17.7,30.05,NNW,335,9.8,14.3,75,0.00,,---,0.00,VWS V14.01,2013-03-02 00:28:00,
2013-03-01 19:33:00,24.4,17.7,30.05,NW,312,8.1,15.2,75,0.00,,---,0.00,VWS V14.01,2013-03-02 00:33:00,
2013-03-01 19:38:00,24.4,17.7,30.05,NNW,347,12.5,16.1,75,0.00,,---,0.00,VWS V14.01,2013-03-02 00:38:00,
2013-03-01 19:43:00,24.4,17.7,30.05,North,3,16.1,16.1,75,0.00,,---,0.00,VWS V14.01,2013-03-02 00:43:00,
2013-03-01 19:48:00,24.4,17.7,30.05,North,351,16.1,25.5,75,0.00,,---,0.00,VWS V14.01,2013-03-02 00:48:00,
2013-03-01 19:53:00,24.4,17.7,30.08,NNW,329,9.8,12.5,75,0.00,,---,0.00,VWS V14.01,2013-03-02 00:53:00,
2013-03-01 19:58:00,24.4,18.0,30.08,North,4,17.4,17.4,76,0.00,,---,0.00,VWS V14.01,2013-03-02 00:58:00,
2013-03-01 20:03:00,24.4,18.0,30.08,NNE,21,12.5,17.4,76,0.00,,---,0.00,VWS V14.01,2013-03-02 01:03:00,
2013-03-01 20:08:00,24.4,18.0,30.05,North,5,7.2,7.2,76,0.00,,---,0.00,VWS V14.01,2013-03-02 01:08:00,
2013-03-01 20:13:00,24.4,18.0,30.05,NW,319,12.5,12.5,76,0.00,,---,0.00,VWS V14.01,2013-03-02 01:13:00,
2013-03-01 20:18:00,24.4,18.0,30.05,North,359,12.5,12.5,76,0.00,,---,0.00,VWS V14.01,2013-03-02 01:18:00,
2013-03-01 20:23:00,24.4,18.0,30.05,NNE,14,10.7,16.6,76,0.00,,---,0.00,VWS V14.01,2013-03-02 01:23:00,
2013-03-01 20:29:00,24.4,18.0,30.05,NNW,336,7.2,10.7,76,0.00,,---,0.00,VWS V14.01,2013-03-02 01:29:00,
2013-03-01 20:34:00,24.4,18.0,30.05,NNW,346,5.4,9.8,76,0.00,,---,0.00,VWS V14.01,2013-03-02 01:34:00,
2013-03-01 20:39:00,24.4,18.0,30.08,North,360,15.2,21.0,76,0.00,,---,0.00,VWS V14.01,2013-03-02 01:39:00,
2013-03-01 20:44:00,24.4,18.0,30.08,NNE,14,9.8,21.9,76,0.00,,---,0.00,VWS V14.01,2013-03-02 01:44:00,
2013-03-01 20:49:00,24.4,18.0,30.08,North,354,15.2,17.4,76,0.00,,---,0.00,VWS V14.01,2013-03-02 01:49:00,
2013-03-01 20:54:00,24.4,17.7,30.08,North,354,10.7,19.2,75,0.00,,---,0.00,VWS V14.01,2013-03-02 01:54:00,
2013-03-01 20:59:00,24.4,17.7,30.08,NNW,335,16.1,16.1,75,0.00,,---,0.00,VWS V14.01,2013-03-02 01:59:00,
2013-03-01 21:04:00,24.4,17.7,30.08,NW,322,11.6,11.6,75,0.00,,---,0.00,VWS V14.01,2013-03-02 02:04:00,
2013-03-01 21:09:00,24.4,17.7,30.08,NNW,348,6.3,17.4,75,0.00,,---,0.00,VWS V14.01,2013-03-02 02:09:00,
2013-03-01 21:14:00,24.4,17.7,30.08,North,359,11.6,12.5,75,0.00,,---,0.00,VWS V14.01,2013-03-02 02:14:00,
2013-03-01 21:19:00,24.4,17.7,30.08,North,1,5.4,7.2,75,0.00,,---,0.00,VWS V14.01,2013-03-02 02:19:00,
2013-03-01 21:24:00,24.4,17.7,30.08,NNW,347,9.8,9.8,75,0.00,,---,0.00,VWS V14.01,2013-03-02 02:24:00,
2013-03-01 21:29:00,24.4,17.7,30.08,NNE,14,10.7,16.1,75,0.00,,---,0.00,VWS V14.01,2013-03-02 02:29:00,
2013-03-01 21:34:00,24.4,17.4,30.08,NNE,14,14.3,14.3,74,0.00,,---,0.00,VWS V14.01,2013-03-02 02:34:00,
2013-03-01 21:39:00,24.4,17.4,30.08,NNW,334,14.3,14.3,74,0.00,,---,0.00,VWS V14.01,2013-03-02 02:39:00,
2013-03-01 21:45:00,24.4,17.4,30.08,NNE,21,7.2,11.6,74,0.00,,---,0.00,VWS V14.01,2013-03-02 02:45:00,
2013-03-01 21:50:00,24.4,17.4,30.08,NNW,347,10.7,10.7,74,0.00,,---,0.00,VWS V14.01,2013-03-02 02:50:00,
2013-03-01 21:55:00,24.4,17.4,30.08,North,6,12.5,12.5,74,0.00,,---,0.00,VWS V14.01,2013-03-02 02:55:00,
2013-03-01 22:00:00,24.4,17.4,30.08,NNE,14,7.2,7.2,74,0.00,,---,0.00,VWS V14.01,2013-03-02 03:00:00,
2013-03-01 22:05:00,24.4,17.4,30.08,NE,47,8.1,10.7,74,0.00,,---,0.00,VWS V14.01,2013-03-02 03:05:00,
2013-03-01 22:10:00,24.4,17.4,30.08,NW,315,11.6,11.6,74,0.00,,---,0.00,VWS V14.01,2013-03-02 03:10:00,
2013-03-01 22:15:00,24.4,17.4,30.08,NNW,345,10.7,10.7,74,0.00,,---,0.00,VWS V14.01,2013-03-02 03:15:00,
2013-03-01 22:28:00,24.3,17.2,30.08,NNW,340,10.7,10.7,74,0.00,,---,0.00,VWS V14.01,2013-03-02 03:28:00,
2013-03-01 22:33:00,24.3,17.2,30.08,North,352,16.1,16.1,74,0.00,,---,0.00,VWS V14.01,2013-03-02 03:33:00,
2013-03-01 22:38:00,24.3,17.5,30.08,NNW,345,6.3,16.6,75,0.00,,---,0.00,VWS V14.01,2013-03-02 03:38:00,
2013-03-01 22:43:00,24.1,17.3,30.08,NNW,334,21.0,26.4,75,0.00,,---,0.00,VWS V14.01,2013-03-02 03:43:00,
2013-03-01 22:48:00,24.1,17.0,30.08,NNW,339,9.8,21.0,74,0.00,,---,0.00,VWS V14.01,2013-03-02 03:48:00,
2013-03-01 22:53:00,23.9,16.8,30.08,NE,36,10.7,12.5,74,0.00,,---,0.00,VWS V14.01,2013-03-02 03:53:00,
2013-03-01 22:58:00,23.9,16.8,30.08,NNW,347,12.5,12.5,74,0.00,,---,0.00,VWS V14.01,2013-03-02 03:58:00,
2013-03-01 23:03:00,23.9,16.8,30.08,NNW,345,12.5,12.5,74,0.00,,---,0.00,VWS V14.01,2013-03-02 04:03:00,
2013-03-01 23:09:00,23.9,16.8,30.08,North,358,12.5,12.5,74,0.00,,---,0.00,VWS V14.01,2013-03-02 04:09:00,
2013-03-01 23:14:00,23.9,16.8,30.08,North,351,7.2,7.2,74,0.00,,---,0.00,VWS V14.01,2013-03-02 04:14:00,
2013-03-01 23:19:00,23.9,16.8,30.08,NNW,335,12.5,17.4,74,0.00,,---,0.00,VWS V14.01,2013-03-02 04:19:00,
2013-03-01 23:24:00,23.9,16.5,30.08,NNW,332,8.1,11.6,73,0.00,,---,0.00,VWS V14.01,2013-03-02 04:24:00,
2013-03-01 23:29:00,23.9,16.5,30.08,NNW,343,10.7,16.1,73,0.00,,---,0.00,VWS V14.01,2013-03-02 04:29:00,
2013-03-01 23:34:00,23.9,16.5,30.08,NNW,328,8.1,11.6,73,0.00,,---,0.00,VWS V14.01,2013-03-02 04:34:00,
2013-03-01 23:39:00,23.9,16.5,30.05,NW,313,15.2,15.2,73,0.00,,---,0.00,VWS V14.01,2013-03-02 04:39:00,
2013-03-01 23:44:00,23.9,16.5,30.05,NW,315,16.1,16.1,73,0.00,,---,0.00,VWS V14.01,2013-03-02 04:44:00,
2013-03-01 23:49:00,23.9,16.5,30.05,NNW,339,6.3,10.7,73,0.00,,---,0.00,VWS V14.01,2013-03-02 04:49:00,
2013-03-01 23:54:00,23.9,16.5,30.05,NW,323,10.7,10.7,73,0.00,,---,0.00,VWS V14.01,2013-03-02 04:54:00,
2013-03-01 23:59:00,23.9,16.5,30.05,NNW,341,10.7,13.4,73,0.00,,---,0.00,VWS V14.01,2013-03-02 04:59:00,